Brainerd, MN

6:48 PM CDT on April 23, 2017 (GMT -0500)
Brainerd-Crow Wing County Regional

Weather History for KBRD - April, 2014

Change the Weather History Date:

Thursday, April 17, 2014

  Actual Average Record
Temperature  
Mean Temperature 38 °F -  
Max Temperature 48 °F 56 °F 79 °F (1958)
Min Temperature 28 °F 31 °F 17 °F (1990)
Degree Days  
Heating Degree Days 27    
Moisture  
Dew Point 19 °F    
Average Humidity 55    
Maximum Humidity 67    
Minimum Humidity 29    
Precipitation  
Precipitation 0.00 in - - ()
Sea Level Pressure  
Sea Level Pressure 30.25 in    
Wind  
Wind Speed 10 mph (North)    
Max Wind Speed 15 mph    
Max Gust Speed 18 mph    
Visibility 10 miles    
Events      
Averages and records for this station are not official NWS values.
T = Trace of Precipitation, MM = Missing Value Source: NWS Daily Summary

Daily Weather History Graph

Daily Weather History Graph

Search for Another Location

Airport or City:

Trip Planner

Search our weather history database for the weather conditions in past years. The results will help you decide how hot, cold, wet, or windy it might be!

Date:

Astronomy

Apr. 17, 2014 Rise Set
Actual Time 6:26 AM CDT 8:06 PM CDT
Civil Twilight 5:54 AM CDT 8:38 PM CDT
Nautical Twilight 5:15 AM CDT 9:17 PM CDT
Astronomical Twilight 4:33 AM CDT 9:59 PM CDT
Moon 11:00 PM CDT (4/17) 7:52 AM CDT (4/17)
Length of Visible Light 14h 44m
Length of Day
13h 40m
Waning Gibbous, 93% of the Moon is Illuminated
Apr 17
Waning Gibbous
Apr 22
Last Quarter
Apr 29
New
May 6
First Quarter
May 14
Full

Hourly Weather History & Observations

Time (CDT) Temp. Windchill Dew Point Humidity Pressure Visibility Wind Dir Wind Speed Gust Speed Precip Events Conditions
12:53 AM 30.0 °F 19.1 °F 19.9 °F 66% 30.20 in 10.0 mi NNE 15.0 mph - N/A   Overcast
1:53 AM 30.0 °F 20.5 °F 19.9 °F 66% 30.19 in 10.0 mi NNE 11.5 mph - N/A   Overcast
2:53 AM 28.9 °F 19.8 °F 19.0 °F 67% 30.20 in 10.0 mi North 10.4 mph - N/A   Mostly Cloudy
3:00 AM 28.9 °F 19.8 °F 19.0 °F 67% 30.15 in 10.0 mi North 10.4 mph - N/A   Mostly Cloudy
3:53 AM 28.9 °F 19.2 °F 19.0 °F 67% 30.20 in 10.0 mi North 11.5 mph - N/A   Overcast
4:53 AM 28.9 °F 21.1 °F 19.0 °F 67% 30.22 in 10.0 mi North 8.1 mph - N/A   Overcast
5:34 AM 30.0 °F 22.4 °F 19.9 °F 66% 30.18 in 10.0 mi North 8.1 mph - N/A   Overcast
5:43 AM 30.0 °F 20.5 °F 19.9 °F 66% 30.18 in 10.0 mi North 11.5 mph - N/A   Overcast
5:50 AM 30.2 °F 21.3 °F 19.4 °F 64% 30.18 in 10.0 mi North 10.4 mph - N/A   Overcast
5:53 AM 30.0 °F 21.7 °F 19.9 °F 66% 30.23 in 10.0 mi North 9.2 mph - N/A   Overcast
6:25 AM 30.0 °F 21.7 °F 19.9 °F 66% 30.19 in 10.0 mi North 9.2 mph - N/A   Overcast
6:53 AM 30.0 °F 21.1 °F 19.9 °F 66% 30.26 in 10.0 mi North 10.4 mph - N/A   Overcast
7:39 AM 30.0 °F 20.5 °F 19.0 °F 64% 30.22 in 10.0 mi North 11.5 mph - N/A   Overcast
7:53 AM 30.0 °F 21.7 °F 19.0 °F 64% 30.27 in 10.0 mi North 9.2 mph - N/A   Overcast
8:53 AM 32.0 °F 23.6 °F 19.9 °F 61% 30.29 in 10.0 mi North 10.4 mph - N/A   Mostly Cloudy
9:53 AM 34.0 °F 24.6 °F 21.0 °F 59% 30.29 in 10.0 mi North 13.8 mph - N/A   Clear
10:53 AM 37.9 °F 30.9 °F 21.9 °F 53% 30.30 in 10.0 mi NNW 10.4 mph - N/A   Clear
12:53 PM 41.0 °F 33.5 °F 21.0 °F 45% 30.30 in 10.0 mi NNW 13.8 mph - N/A   Clear
1:53 PM 43.0 °F 37.2 °F 21.9 °F 43% 30.30 in 10.0 mi NNW 10.4 mph - N/A   Clear
2:53 PM 45.0 °F 40.1 °F 21.0 °F 39% 30.30 in 10.0 mi North 9.2 mph 18.4 mph N/A   Clear
3:53 PM 46.9 °F - 19.0 °F 33% 30.29 in 10.0 mi NNE 4.6 mph - N/A   Clear
4:53 PM 48.0 °F - 19.0 °F 32% 30.28 in 10.0 mi North 5.8 mph - N/A   Clear
5:53 PM 46.9 °F - 17.1 °F 30% 30.29 in 10.0 mi Variable 3.5 mph - N/A   Clear
6:53 PM 48.0 °F - 17.1 °F 29% 30.28 in 10.0 mi Calm Calm - N/A   Clear
7:53 PM 45.0 °F - 15.1 °F 30% 30.29 in 10.0 mi Calm Calm - N/A   Clear
8:53 PM 37.0 °F 31.6 °F 19.0 °F 48% 30.31 in 10.0 mi SSW 6.9 mph - N/A   Clear
9:53 PM 37.9 °F - 19.9 °F 48% 30.32 in 10.0 mi Calm Calm - N/A   Clear
10:53 PM 30.9 °F - 19.9 °F 64% 30.32 in 10.0 mi Calm Calm - N/A   Clear
11:53 PM 34.0 °F 31.0 °F 19.9 °F 56% 30.33 in 10.0 mi East 3.5 mph - N/A   Clear